Theta_e
299 300 299 300 300 299 299 299 298 298 298 298 298 298 297 299 298 298 300 304 307 309 311 311 312 313 313 314 314 315 316 317 319 320 319 320 321 323 322 323 324 324 326
299 299 299 299 299 299 299 299 298 298 298 298 298 298 297 298 298 298 299 300 303 305 307 309 310 311 312 313 312 313 316 317 318 318 319 320 320 320 321 321 322 323 323
299 299 299 299 299 299 298 299 298 298 298 298 297 297 297 297 297 297 298 299 300 301 304 306 308 310 311 311 312 314 315 315 317 317 318 319 319 321 321 321 322 322 322
299 299 299 299 299 299 298 298 298 297 298 298 297 297 297 297 296 297 298 298 299 299 300 303 306 308 309 310 311 312 313 314 314 314 316 317 318 317 319 320 321 321 322
298 299 299 299 299 299 298 297 298 297 297 297 296 297 297 297 297 297 297 298 299 299 299 301 303 303 307 309 310 311 311 314 314 315 316 316 317 318 319 319 319 320 322
298 298 299 299 299 299 298 297 297 297 297 296 295 295 297 297 297 297 297 297 298 299 300 300 300 300 304 307 308 309 312 313 314 315 316 317 318 318 319 320 320 321 320
298 298 298 299 299 298 297 296 297 296 296 297 296 296 295 295 295 296 297 297 297 298 299 299 299 299 300 304 304 308 311 312 315 315 316 317 317 318 319 320 320 321 322
298 298 298 298 298 298 298 297 296 296 297 296 294 293 291 293 294 296 296 296 296 298 298 298 298 298 299 300 302 304 305 310 314 314 315 316 317 318 319 320 321 321 322
298 298 298 298 298 297 297 297 296 295 295 296 295 294 290 289 291 295 294 295 296 297 298 298 298 298 299 298 301 301 303 307 310 311 314 316 317 318 319 319 320 321 322
298 298 298 297 297 297 297 297 297 297 295 294 296 294 294 293 290 288 294 294 295 295 297 298 298 298 298 298 300 301 303 304 306 307 311 314 316 317 319 319 320 321 320
297 297 298 297 297 297 297 297 296 296 296 295 295 295 293 293 293 290 288 291 294 296 297 298 298 297 297 298 299 299 302 303 303 305 309 312 315 317 317 319 319 319 319
297 297 297 297 297 297 297 297 296 296 296 295 295 295 293 293 292 291 289 290 290 293 296 298 297 297 297 298 298 300 301 300 301 304 306 310 313 315 316 317 317 319 319
296 297 297 297 297 297 297 297 296 296 296 295 295 295 295 294 294 293 291 290 290 292 294 297 298 297 297 297 297 299 298 299 300 303 304 308 310 311 312 314 314 316 317
297 298 297 297 297 297 297 297 296 296 296 295 294 294 295 295 295 294 292 291 288 290 292 293 298 297 297 297 297 298 295 297 300 301 303 306 308 309 310 311 313 313 315
296 297 297 297 297 296 296 297 296 296 295 295 294 294 294 295 296 295 293 293 290 285 287 292 293 297 298 296 295 295 294 296 297 299 303 304 305 308 309 310 311 312 313
296 296 297 296 296 296 296 296 296 296 294 295 294 293 294 295 296 295 294 293 293 290 286 293 295 297 297 294 294 294 294 295 296 298 300 301 304 307 307 308 309 310 311
295 295 296 296 295 296 296 295 295 295 294 294 293 293 294 296 295 295 294 293 293 293 290 293 296 296 295 293 293 294 294 293 293 296 299 301 303 305 305 305 306 308 309
295 295 295 295 295 295 295 295 294 294 293 293 293 293 294 294 294 295 294 292 293 293 293 291 294 294 293 294 293 293 292 293 293 295 298 301 302 302 303 302 304 305 307
294 294 294 294 294 294 294 294 294 293 293 293 292 293 294 294 294 295 294 292 294 295 296 293 292 294 293 294 293 293 292 293 292 294 296 297 298 299 299 300 302 303 304
294 293 293 293 293 294 293 293 292 292 292 292 292 293 294 294 294 295 295 294 294 295 295 293 292 291 292 293 293 290 287 291 291 292 293 295 296 296 298 299 300 301 302
294 294 293 293 293 293 293 293 292 292 292 292 292 292 294 295 297 298 296 296 295 295 294 292 291 291 291 291 290 289 287 287 291 292 291 291 293 292 293 296 297 299 300
293 293 292 292 292 292 295 297 295 292 291 291 291 293 294 296 297 298 300 298 297 295 293 291 291 290 290 291 291 288 286 285 284 294 290 290 292 292 292 293 297 298 300
292 292 292 292 292 293 297 299 300 297 294 293 293 293 293 294 296 295 296 297 297 297 296 294 291 292 290 291 291 286 286 285 286 289 291 288 291 290 292 292 296 296 297
292 292 292 292 292 292 297 299 301 299 296 295 294 294 294 294 294 293 292 292 293 293 292 290 292 293 294 291 293 291 288 285 289 290 291 287 291 290 291 292 294 295 295
292 292 293 292 292 292 297 299 299 298 295 294 294 294 293 293 295 296 294 292 293 292 291 294 295 295 296 296 295 293 291 289 287 288 291 289 290 289 291 291 292 293 294
293 293 292 292 294 292 296 299 299 296 294 293 293 293 296 294 296 297 296 293 287 288 291 291 291 290 290 290 291 292 291 288 288 288 291 288 289 288 288 292 291 291 292
Wind_Speed
2 2 2 2 3 4 5 5 6 7 8 9 8 7 7 6 8 4 4 13 14 14 15 15 16 17 18 18 18 18 21 20 20 19 19 18 19 20 20 21 21 21 24
1 1 2 3 3 3 4 4 5 6 6 7 8 7 7 7 8 8 5 6 14 14 15 15 16 17 18 19 18 19 19 20 20 18 21 20 19 19 20 21 22 22 22
1 1 1 2 3 3 5 4 5 5 5 6 7 6 4 7 6 9 8 6 8 11 14 15 15 16 17 17 18 19 20 21 21 19 20 21 21 23 21 20 22 22 24
2 1 0 2 3 3 4 4 4 5 6 7 6 4 2 3 8 8 8 8 8 7 8 14 15 15 16 17 18 19 20 20 21 21 21 22 21 22 24 24 23 23 24
3 2 1 1 2 3 3 4 5 5 6 7 7 4 1 2 4 6 8 10 10 9 7 12 14 13 15 18 20 21 20 21 20 19 20 21 22 22 23 25 27 28 27
5 3 2 2 1 3 3 4 5 5 5 7 5 3 0 2 3 5 6 7 10 10 9 9 8 9 15 17 20 21 22 22 21 19 21 23 23 23 26 27 28 28 29
5 5 3 3 1 3 3 4 4 5 4 8 5 3 1 3 2 5 3 6 10 10 10 9 7 7 8 16 17 21 23 22 23 24 22 22 23 25 25 28 28 27 28
7 5 4 4 3 3 3 4 4 3 2 6 5 3 5 1 2 3 4 6 10 9 10 11 10 11 9 9 13 20 22 24 27 26 26 26 26 26 26 27 25 22 22
8 6 6 5 4 4 3 3 3 3 3 3 4 3 3 3 10 2 5 6 9 10 10 10 12 12 11 11 12 15 22 25 25 27 28 28 27 27 29 27 24 24 24
8 7 7 7 6 4 5 4 3 3 2 4 2 3 4 4 3 7 3 7 8 10 12 9 10 10 12 9 13 17 22 24 26 28 28 30 30 29 29 28 26 25 25
7 7 7 7 7 5 6 5 5 5 4 4 3 3 3 4 6 6 10 10 9 8 8 9 10 9 10 10 10 14 23 24 27 26 26 28 30 32 28 30 28 27 29
5 8 7 7 7 6 7 6 5 6 5 5 5 5 5 4 5 4 6 11 12 9 10 9 9 9 9 9 13 19 21 25 25 24 24 26 28 31 29 30 30 32 31
6 8 8 8 7 7 7 6 6 7 7 6 7 6 5 6 5 6 7 9 9 11 7 7 8 9 8 9 11 19 19 23 22 21 22 24 27 28 29 30 30 30 32
8 7 7 8 8 8 7 7 6 6 7 6 8 7 6 6 5 6 5 6 11 8 9 14 8 7 9 9 13 19 13 19 21 20 21 21 24 26 25 26 28 29 31
8 9 9 9 9 8 8 8 6 8 7 7 7 7 7 6 5 5 5 5 5 8 11 10 10 10 10 11 13 11 12 17 18 19 20 20 21 23 22 25 26 26 29
10 10 9 10 9 9 9 8 7 8 8 7 6 7 7 6 6 4 4 5 5 7 7 11 10 12 12 10 13 12 11 14 15 17 18 18 19 20 21 23 25 29 26
11 12 11 10 10 10 9 9 9 9 9 8 8 8 8 7 6 5 4 4 5 6 10 11 10 11 12 13 12 11 10 9 7 16 18 17 16 19 21 23 24 25 29
12 12 11 11 11 10 10 10 10 9 9 9 9 7 8 5 7 6 4 6 6 8 6 13 12 10 12 13 13 12 9 8 8 14 15 17 18 19 21 23 23 23 25
13 12 12 12 12 11 11 10 10 10 10 10 9 8 8 6 7 6 5 6 6 7 6 7 10 8 9 9 11 10 9 9 6 13 13 14 16 18 19 21 22 23 22
13 13 13 12 12 11 11 10 10 10 10 9 9 9 8 8 8 8 7 7 8 9 7 7 9 9 9 9 9 10 9 8 5 9 9 12 14 16 18 22 22 23 22
13 13 12 12 12 11 9 11 11 10 10 10 9 9 9 10 12 12 7 7 9 7 6 7 8 8 7 8 9 7 7 8 7 5 7 6 6 7 9 15 16 20 21
13 12 13 13 12 9 16 19 14 10 10 10 10 9 9 11 11 13 15 12 12 8 8 6 6 8 9 6 2 4 5 7 5 2 8 5 6 7 8 9 18 19 22
12 13 13 13 13 13 19 21 20 10 10 11 11 9 8 7 10 8 11 13 11 9 10 8 8 8 6 5 3 2 1 3 4 5 7 3 7 5 6 8 17 19 19
13 12 12 13 12 11 20 22 21 12 10 11 11 10 9 9 9 9 9 9 7 5 6 5 6 8 8 7 6 3 2 4 6 4 5 1 4 3 4 6 15 17 19
12 12 10 12 13 12 21 22 18 11 10 11 10 10 10 9 12 13 10 10 7 6 5 7 8 10 12 12 5 4 5 6 4 2 3 3 1 4 2 4 7 15 18
12 9 11 12 16 13 19 22 19 8 11 8 8 9 16 12 15 15 11 9 4 5 4 4 4 4 5 5 6 4 4 5 4 3 4 7 5 5 2 1 6 9 7
Wind_Direction
63 18 24 2 350 353 354 348 352 356 357 359 6 7 18 22 18 19 7 3 0 353 351 345 333 328 323 321 320 318 313 316 306 305 301 300 302 303 298 300 296 293 293
112 46 22 3 3 355 348 333 343 347 350 352 358 3 14 18 26 27 21 13 6 358 345 341 336 332 330 327 318 316 308 306 311 320 315 310 302 298 295 298 292 291 287
154 64 2 357 359 350 345 347 350 348 349 352 357 1 15 24 22 23 24 16 3 360 353 344 338 336 332 323 323 322 324 315 310 310 305 304 308 307 296 294 288 282 282
182 178 327 344 351 350 344 353 1 352 355 354 354 8 1 40 27 20 12 9 2 1 349 348 344 340 332 329 325 326 323 318 309 302 297 303 302 298 296 295 287 282 280
200 215 277 341 335 355 4 354 353 354 347 352 340 354 34 250 2 10 9 5 2 355 348 346 348 346 339 333 330 327 321 318 317 311 304 299 297 291 289 286 283 282 280
206 210 234 255 322 336 353 1 342 343 327 346 320 335 356 290 282 342 350 356 359 353 349 345 342 341 336 334 333 329 319 322 317 307 305 301 303 298 297 289 283 277 274
211 215 222 245 276 311 339 335 333 343 350 348 330 357 266 285 273 353 329 347 355 353 346 345 341 339 336 333 331 327 329 324 320 318 313 312 312 307 303 298 285 280 268
217 219 221 240 240 275 312 339 357 339 327 13 2 329 341 254 260 323 321 342 346 345 341 343 337 339 334 331 327 332 330 323 325 329 325 322 318 318 312 308 293 286 286
220 220 221 232 233 244 277 287 283 317 338 348 6 316 316 319 329 260 302 325 335 338 342 336 332 335 330 330 333 334 332 322 339 329 324 323 322 325 325 320 305 289 292
222 222 229 232 237 235 247 265 262 280 252 305 313 209 256 278 301 312 285 332 329 328 331 328 331 332 335 332 334 333 330 328 336 327 323 322 327 331 330 328 319 298 299
225 221 228 231 237 235 247 254 260 250 253 277 262 282 261 260 248 257 302 321 318 329 317 320 325 332 337 336 328 331 328 340 329 327 325 324 328 334 339 336 332 326 316
222 226 227 227 234 236 239 248 252 251 254 254 262 256 255 278 289 272 280 310 315 325 320 319 322 336 337 336 332 328 335 333 329 322 330 324 332 339 345 339 338 343 331
223 226 220 222 226 228 233 239 246 250 249 246 255 256 250 253 261 273 278 296 304 316 316 318 327 319 332 334 336 326 342 332 325 332 328 331 335 337 343 343 340 345 347
225 222 222 224 228 228 230 232 241 248 246 247 253 248 258 263 253 254 263 295 312 305 312 323 320 322 334 333 337 330 334 334 335 331 326 339 338 339 338 341 343 351 349
224 225 221 223 225 229 230 233 240 247 245 253 252 254 252 263 259 257 249 256 278 305 312 322 322 326 335 336 339 339 332 327 336 335 335 346 337 334 343 349 354 351 359
216 218 220 223 227 227 226 227 239 245 245 252 252 254 254 259 271 256 252 259 247 263 284 310 313 322 337 336 339 340 333 339 335 336 344 344 337 343 354 356 355 355 8
214 217 219 222 225 228 226 226 233 243 243 251 252 251 259 262 270 268 258 264 263 251 278 303 308 329 337 337 339 343 341 340 340 340 346 344 343 357 359 2 356 358 2
212 217 218 221 225 228 228 226 232 235 240 246 252 249 255 262 267 263 263 269 261 271 269 301 311 324 332 336 335 341 341 343 338 351 355 351 357 5 3 359 359 2 6
215 213 215 220 223 225 226 226 230 235 238 242 247 248 250 255 268 261 259 261 268 269 278 269 306 311 326 335 341 349 349 348 343 359 1 3 5 359 358 1 0 4 10
217 216 215 218 219 222 224 226 223 229 236 239 240 243 243 243 257 260 257 257 267 271 282 288 297 308 326 337 343 354 348 351 336 7 2 360 355 355 356 1 4 3 5
216 218 218 220 221 221 223 222 221 225 229 237 237 240 239 240 246 249 235 238 263 272 288 296 290 304 321 336 345 346 337 334 322 359 349 349 341 356 360 353 1 4 4
218 214 219 220 219 222 225 226 218 221 224 230 237 236 239 249 257 263 264 259 263 277 287 287 291 293 310 312 325 340 342 352 345 330 351 340 340 357 352 349 3 15 16
214 216 217 217 224 226 226 229 230 223 220 225 229 232 239 234 245 246 248 257 266 276 284 284 281 281 282 286 295 253 289 310 300 297 336 330 354 8 356 356 8 21 21
213 216 217 216 221 227 227 230 232 231 222 226 224 223 226 230 232 233 231 243 251 260 274 271 261 273 274 271 270 271 264 274 277 263 359 263 345 327 355 12 15 17 27
215 212 215 215 218 229 227 228 228 227 227 227 221 215 216 223 235 233 223 239 248 262 272 273 284 290 293 307 283 279 305 322 325 297 349 321 14 304 275 358 6 21 23
221 215 216 217 220 224 225 226 225 220 227 226 222 220 219 218 231 232 236 225 204 244 268 273 294 302 307 306 323 290 298 302 324 309 21 341 346 355 320 26 10 12 9